Flag for Israel Weather past 2 weeks in Ra'anana, Israel

Now
75 °F

Sunny.


Feels Like: 77 °F
Forecast: 58 / 69 °F
Wind: 2 mph from North

Location: Dov Airport

Current Time: Feb 27, 2015 at 3:21:56 PM

Latest Report: Feb 27, 2015 at 2:50 PM


Visibility: 10 mi

Pressure: 29.86 "Hg

Humidity: 36%

Dew point: 46 °F

Location of Ra'ananaLocation

Historic Weather in Ra'anana — Graph

°F

Ra'anana temperature yesterday

Maximum temperature yesterday: 77 °F (at 1:50 PM)
Minimum temperature yesterday: 55 °F (at 6:50 AM)
Average temperature yesterday: 70 °F

Past Weeks' High & Low Weather Summary

 TemperatureHumidityPressure
High82 °F (Feb 27, 11:50 AM)94% (Feb 16, 4:00 AM)30.18 "Hg (Feb 16, 4:00 AM)
Low46 °F (Feb 20, 8:50 AM)17% (Feb 27, 11:50 AM)29.65 "Hg (Feb 20, 6:50 AM)
Average58 °F63%29.97 "Hg
* Reported Feb 12 1:50 PM — Feb 27 1:50 PM, Ra'anana, Weather by CustomWeather, © 2015

Note: Actual official high and low records may vary slightly from our data, if they occured in-between our weather recording intervals... More about our weather records

Advertising

Ra'anana weather history for previous 24 hours

 ConditionsComfort  
Time TempWeatherWind HumidityBarometerVisibility
1:50 PM
Fri, Feb 27
75 °FSunny.3 mph34%29.89 "Hg10 mi
12:50 PM79 °FSunny.6 mph39%29.89 "Hg10 mi
11:50 AM82 °FPassing clouds.7 mph17%29.89 "HgN/A
10:50 AM79 °FSunny.3 mph23%29.92 "Hg10 mi
9:50 AM72 °FSunny.2 mph22%29.95 "Hg10 mi
8:50 AM70 °FSunny.2 mph31%29.95 "Hg10 mi
7:50 AM68 °FSunny.2 mph28%29.92 "Hg10 mi
6:50 AM66 °FSunny.12 mph24%29.92 "Hg10 mi
5:50 AM66 °FClear.10 mph24%29.89 "Hg10 mi
10:50 PM
Thu, Feb 26
68 °FClear.6 mph28%29.98 "Hg10 mi
9:50 PM68 °FClear.5 mph33%29.98 "Hg10 mi
8:50 PM68 °FPassing clouds.5 mph35%30.01 "HgN/A
7:50 PM70 °FPassing clouds.5 mph35%30.01 "HgN/A
6:50 PM72 °FClear.6 mph33%30.01 "Hg10 mi
5:50 PM73 °FClear.3 mph31%30.01 "Hg10 mi
4:50 PM75 °FPassing clouds.6 mph29%30.01 "HgN/A
3:50 PM77 °FPassing clouds.8 mph28%30.01 "HgN/A
Weather by CustomWeather, © 2015

See weather overviewHow to use our weather pages